Location: Freistadt
(48.5112°N, 14.5013°E)
Time: 09:57:05
(UTC+02:00)

PCSat - Pass Details

Date: 03 April 2023
Orbit: 783 x 794 km, 67.1° (Epoch: 29 May)

Event Time Altitude Azimuth Distance (km) Brightness Sun altitude
Rises 00:35:35 0° 324° (NW) 3,301 13.6 -36.0°
Reaches altitude 10° 00:38:01 10° 322° (NW) 2,369 12.6 -36.0°
Enters shadow 00:40:22 27° 318° (NW) 1,509 11.4 -36.1°
